Weather in Novoklenskoye

Russia / Tambov Oblast     53°12′08″N   40°14′09″E
temp.,
°C
wind,
m/s
gust,
m/s
humid.,
%
clouds,
%
prec.,
mm/h
press.,
hPa
HPBL,
m
28 july, wed
wed2800:00+18sw22685 0.0 101811
03:00+17nw22795 0.0 101812
06:00+18w127838 0.0 101742
09:00+24wsw225597 0.0 1017412
12:00+28sw2238100 0.0 10161489
15:00+30w1432100 0.0 10142895
18:00+18nne4791100 1.9 1015173
21:00+18ese4884100 2.0 1013158
29 july, thu
thu2900:00+18se3785100 0.1 1012162
03:00+18se378296 0.1 1010181
06:00+18sw24775 0.0 1009119
09:00+24w57595 0.0 1008821
12:00+28w79430 0.0 10071893
15:00+30wnw793510 0.0 10072711
18:00+26w494824 0.0 1007335
21:00+25w2254100 0.0 100735
30 july, fri
fri3000:00+22wsw226123 0.0 100718
03:00+22sw3561100 0.0 1007110
06:00+21ssw356960 0.0 1007118
09:00+26ssw35519 0.0 1007372
12:00+30wsw264065 0.0 10061550
15:00+29w584284 0.1 1004641
18:00+27wnw795533 0.2 1005976
21:00+22wnw22755 0.2 100625
31 july, sat
sat3100:00+19nw34920 0.4 100775
03:00+18wnw349228 0.4 100771
06:00+18wnw378421 0.0 1008200
09:00+25wnw35451 0.0 1009796
12:00+29w563199 0.0 10082481
15:00+31w682812 0.0 10082982
18:00+29w673168 0.0 10082468
21:00+23wsw334894 0.0 100929
1 august, sun
sun100:00+21w33575 0.0 101037
03:00+19wsw22675 0.0 101111
06:00+20ssw23635 0.0 101183
09:00+28ssw57400 0.0 1010706
12:00+32ssw68250 0.0 10092803
15:00+34sw79225 0.0 10073415
18:00+32w6828100 0.0 10072346
21:00+25w354699 0.0 100879